Погода в Лекаревке

Россия / Оренбургская область     53°28′10″N   52°44′33″E
темп.,
°C
ветер,
м/с
пор.,
м/с
влажн.,
%
обл.,
%
осадки,
мм/ч
давл.,
гПа
погр.,
м
11 апреля, вс
вс1123:00+11юв8198196 0.0 1026436
02:00+10юв81882100 0.1 1026477
05:00+9юв71879100 0.1 1027446
08:00+8юв6157995 0.0 1029434
11:00+12ююв7146587 0.0 1029481
14:00+16ююв71155100 0.0 1029657
17:00+17ю5852100 0.0 1030852
20:00+13юв3366100 0.0 103125
12 апреля, пн
пн1223:00+10вюв3678100 0.0 103293
02:00+8юв3484100 0.0 103387
05:00+7вюв3386100 0.0 103443
08:00+7в2284100 0.0 103533
11:00+12вюв446677 0.0 1035308
14:00+16вюв34535 0.0 1035708
17:00+17в33486 0.0 1034939
20:00+14в35665 0.0 103566
13 апреля, вт
вт1323:00+11в347873 0.0 103556
02:00+9в368870 0.0 1036101
05:00+7в228719 0.0 103618
08:00+8вюв238310 0.0 103767
11:00+13юв45546 0.0 1037531
14:00+17юв453847 0.0 1035900
17:00+18юв44335 0.0 10351110
20:00+14юв33475 0.0 103435
14 апреля, ср
ср1423:00+10юв225628 0.0 103413
02:00+8юв227527 0.0 103418
05:00+7юв22926 0.0 103414
08:00+7вюв23905 0.0 103391
11:00+12юв34655 0.0 1032529
14:00+16юв44495 0.0 1030965
17:00+18юв34435 0.0 10281137
20:00+15вюв33574 0.0 102624
15 апреля, чт
чт1523:00+12вюв22665 0.0 102610
02:00+10вюв117121 0.0 102610
05:00+9вюв227945 0.0 102510
08:00+9вюв247125 0.0 102495
11:00+14юв46465 0.0 1023552
14:00+17ююв44412 0.0 10211124
17:00+19ю34375 0.0 10201493
20:00+15ююв22515 0.0 101911